Wind_Speed
22 21 20 19 18 17 17 17 17 17 17 19 20 22 23 24 25 28 30 33 35 38 40 41 41 41 40 39 39 39 40 40 40 40 40 39 39 38 37 38 37 36
23 22 20 19 17 16 17 17 17 17 18 20 22 23 24 26 28 30 33 35 38 40 40 40 40 39 37 37 37 37 37 38 39 39 39 40 39 38 38 39 38 36
23 22 20 18 17 16 17 17 17 18 19 21 23 24 26 28 30 33 35 38 39 40 39 38 37 36 35 34 34 35 36 36 38 38 38 39 39 38 38 39 38 37
23 21 19 17 17 17 17 17 18 19 21 22 24 25 27 30 32 35 37 38 39 38 37 35 34 33 33 34 34 36 37 37 38 37 38 39 39 38 38 38 39 38
23 20 19 17 17 17 17 17 19 21 22 23 24 26 29 31 34 36 37 37 36 35 34 33 33 33 34 35 36 37 38 39 39 37 36 38 38 37 37 38 39 39
23 21 19 18 18 17 17 18 20 21 22 24 25 28 30 32 35 36 36 35 34 34 33 33 33 34 35 37 38 40 40 40 39 37 36 38 38 36 36 38 39 40
23 21 20 18 18 17 18 19 20 22 23 25 26 29 31 33 35 35 35 35 34 33 33 34 34 35 37 38 40 41 42 42 41 40 40 41 42 41 39 38 39 39
24 22 20 19 18 18 19 19 21 22 24 26 28 30 32 34 34 35 35 34 33 33 34 34 35 36 38 39 41 42 44 45 44 43 43 43 44 45 42 38 37 39
24 22 20 19 19 19 19 20 21 23 25 27 29 31 32 33 34 34 33 33 33 33 34 35 36 37 38 39 41 43 44 45 46 45 45 45 45 46 43 39 37 38
25 23 21 20 19 19 19 20 22 23 25 27 29 31 32 32 33 32 32 32 32 33 34 35 36 37 38 40 41 43 44 45 46 45 45 44 43 44 41 38 37 37
25 23 21 20 19 19 19 20 22 23 25 27 29 30 31 32 31 31 30 31 31 33 34 35 36 37 38 40 42 43 44 45 45 45 44 43 41 41 40 37 36 37
25 23 21 20 19 19 19 20 22 23 25 27 28 30 30 30 29 29 30 30 30 32 33 34 36 38 39 41 42 43 44 44 44 44 43 43 42 41 41 40 39 38
25 22 20 19 18 18 19 20 21 23 24 26 28 29 28 28 28 28 28 29 30 31 33 35 37 39 40 41 43 44 45 45 44 43 43 43 44 44 43 44 44 41
25 22 20 18 17 18 19 20 21 22 24 26 27 27 27 26 26 27 27 28 29 31 33 36 38 40 41 42 43 44 44 43 42 42 43 43 44 44 43 43 44 43
24 21 19 17 17 18 19 19 20 22 23 25 26 25 25 25 25 26 26 28 30 32 34 37 39 40 41 42 43 43 41 39 37 37 39 40 40 41 40 39 40 42
23 20 18 17 17 17 18 19 20 21 23 25 25 24 24 24 24 25 26 28 31 33 35 37 39 40 40 40 40 38 35 34 34 36 37 37 38 39 39 38 37 39
23 20 17 16 17 17 18 19 20 21 23 24 23 23 23 23 23 24 26 29 31 34 35 37 38 38 38 38 37 34 31 31 34 35 36 37 37 38 39 39 37 37
22 19 17 17 17 17 18 19 20 21 23 23 22 23 22 22 23 24 26 29 31 34 35 36 36 36 36 36 35 31 28 29 32 35 37 38 38 38 38 38 38 38
21 19 17 17 17 17 17 18 20 21 22 22 22 22 22 21 22 23 26 28 31 33 34 34 34 34 34 34 32 29 26 27 31 34 37 39 39 38 38 37 38 38
21 19 18 17 17 17 17 18 19 20 21 21 22 22 22 21 22 23 25 28 30 32 33 33 32 32 33 32 31 28 26 27 31 33 36 37 36 36 37 37 37 38
20 19 18 17 16 16 16 18 19 19 19 20 21 22 22 22 22 24 25 27 29 31 32 32 31 31 32 32 31 30 27 29 32 33 36 37 37 36 37 37 37 38
20 19 17 16 15 15 16 17 18 18 18 20 21 21 21 22 23 24 25 27 28 30 31 31 29 30 32 33 32 30 28 31 33 34 36 37 38 37 36 36 37 37
21 18 17 15 14 15 16 17 16 16 17 19 21 21 21 22 23 24 25 27 28 29 30 30 29 30 32 33 31 29 29 32 34 36 37 38 40 40 38 36 36 36
20 17 15 14 14 14 16 15 15 15 17 20 21 21 20 21 23 24 24 26 27 27 27 28 29 30 32 33 31 28 29 33 35 37 40 41 44 44 42 40 40 38
19 16 14 13 13 14 14 14 14 15 17 20 21 21 21 21 22 24 25 25 26 26 26 27 29 30 31 32 30 28 29 32 35 39 44 46 48 48 46 44 42 39
17 14 13 13 13 13 13 12 13 15 17 20 21 20 21 21 22 24 25 25 26 25 25 27 29 31 32 32 31 29 29 32 35 38 44 48 49 49 48 46 42 39
Wind_Direction
234 238 243 247 253 260 265 270 274 281 289 295 299 303 305 307 307 308 309 309 309 309 309 309 308 308 307 306 305 303 302 301 300 299 296 293 292 289 284 282 279 275
233 237 241 246 253 259 263 269 276 285 293 298 302 306 309 310 310 310 312 311 311 311 311 311 311 311 310 309 307 304 303 302 300 299 296 294 292 288 285 284 282 276
231 235 239 246 252 257 263 271 281 289 296 301 304 309 311 312 312 313 314 314 314 314 315 315 314 313 312 310 307 304 302 300 299 297 293 292 290 286 286 286 283 277
230 233 238 244 249 256 265 275 285 292 298 303 307 311 312 312 314 315 316 316 316 317 317 317 315 313 311 309 307 306 303 301 299 296 292 290 289 287 286 286 283 279
228 231 236 242 248 257 267 278 287 293 299 305 309 312 313 314 316 317 318 318 318 318 317 316 315 313 312 311 311 309 307 304 301 296 291 288 287 285 283 284 282 278
226 230 236 242 250 260 271 280 288 295 301 306 309 311 312 315 317 317 318 319 318 318 317 316 315 315 315 314 313 312 309 306 302 296 289 286 284 280 278 280 280 277
226 231 236 244 253 263 273 281 289 296 302 306 308 310 312 315 317 318 319 319 318 318 318 318 318 317 318 316 315 313 310 307 303 297 291 287 284 281 277 278 277 273
227 232 238 246 256 266 275 283 291 296 301 305 307 310 313 316 318 319 319 319 319 319 318 319 320 319 318 316 314 312 310 307 305 301 296 291 288 285 281 277 273 269
228 233 239 248 258 267 276 284 292 296 300 303 307 311 314 317 319 319 318 318 318 319 319 320 320 319 317 316 313 312 309 307 306 303 300 296 292 289 285 279 271 267
228 233 240 249 258 268 277 285 291 295 299 303 308 313 316 318 318 318 318 318 318 319 320 319 319 319 317 316 315 313 311 309 307 305 303 299 295 291 287 281 274 271
227 232 240 249 258 268 277 284 290 294 299 305 310 314 317 318 317 317 317 317 318 319 319 319 319 319 318 317 316 314 312 311 309 307 305 302 298 294 292 287 280 278
226 232 239 248 258 269 277 284 289 294 301 308 313 315 317 317 316 316 316 317 318 319 319 320 320 320 319 318 317 316 315 314 312 310 308 306 304 301 299 296 292 289
225 231 238 248 259 269 277 283 289 297 304 310 314 315 316 316 315 315 316 317 319 319 320 320 320 320 321 321 320 320 319 317 315 313 312 310 307 305 303 301 297 294
224 229 237 248 260 269 277 284 292 301 308 312 314 315 315 315 315 315 317 318 319 320 321 321 321 323 324 324 323 323 322 320 318 315 312 309 306 305 304 301 297 295
222 228 238 250 260 270 278 287 296 304 310 313 314 315 316 316 315 316 318 319 320 321 322 323 325 327 327 327 327 327 324 319 313 307 304 301 299 298 295 292 290 290
221 229 239 251 261 271 280 290 300 307 311 312 314 317 317 316 316 317 319 320 321 322 324 326 328 329 329 330 331 328 323 315 308 302 298 295 292 290 288 285 282 282
221 229 241 252 262 273 284 293 302 307 310 313 316 318 318 316 318 319 320 321 321 323 325 327 329 331 332 333 333 329 322 314 308 303 297 293 290 288 287 286 284 281
222 231 242 253 263 275 285 295 303 307 310 314 317 319 318 317 318 319 319 320 321 323 326 328 330 332 334 335 335 332 323 311 304 300 297 294 292 289 287 286 286 284
223 232 244 254 264 276 287 296 303 306 310 316 319 319 317 317 318 318 318 319 321 323 325 328 331 334 336 337 338 336 326 311 303 299 296 294 291 289 288 286 285 284
226 234 245 256 266 278 289 297 302 307 312 318 319 317 316 316 315 316 317 319 321 321 323 327 331 335 338 340 342 343 332 313 304 300 297 295 292 289 287 286 284 284
228 236 246 257 269 280 290 297 301 307 314 318 318 315 314 314 313 315 317 318 320 320 320 326 332 337 342 344 347 347 335 317 311 308 305 303 299 293 289 285 283 282
229 238 248 260 272 281 290 296 301 309 315 317 315 312 311 313 313 315 317 318 319 318 318 324 333 341 346 349 350 346 332 320 316 312 307 305 304 300 292 284 282 281
231 240 250 262 274 282 288 296 302 311 316 315 312 309 309 312 313 316 318 317 316 316 318 324 336 345 349 351 353 346 328 317 313 310 307 306 307 307 299 289 284 281
232 242 253 265 275 280 287 298 305 312 316 313 308 307 309 311 313 315 317 315 314 316 321 328 338 346 350 352 352 341 321 312 310 309 309 309 308 308 304 298 294 287
233 245 256 266 273 280 289 299 307 314 315 310 305 306 309 312 314 315 316 316 316 318 326 335 341 344 349 353 350 335 317 311 312 311 311 312 310 308 305 302 299 293
235 247 258 265 272 282 293 301 309 316 313 307 305 307 310 314 316 315 317 318 320 324 334 342 343 344 349 351 346 335 320 313 313 312 312 313 313 311 307 303 300 297
Height
1469 1469 1470 1471 1472 1472 1472 1472 1471 1470 1469 1468 1467 1466 1464 1463 1462 1460 1458 1455 1453 1451 1448 1446 1443 1441 1438 1436 1433 1430 1427 1425 1423 1421 1419 1417 1416 1415 1414 1413 1411 1410
1465 1466 1467 1468 1468 1469 1469 1468 1468 1467 1466 1464 1463 1461 1460 1458 1457 1455 1452 1450 1447 1445 1442 1440 1437 1435 1433 1430 1428 1426 1423 1421 1418 1417 1415 1413 1412 1410 1408 1407 1406 1405
1461 1462 1464 1464 1465 1465 1465 1465 1464 1463 1462 1461 1459 1457 1455 1453 1452 1449 1447 1444 1441 1439 1437 1434 1432 1430 1428 1425 1423 1421 1419 1416 1414 1413 1411 1409 1407 1405 1404 1403 1401 1400
1457 1459 1460 1461 1461 1462 1462 1461 1460 1459 1458 1457 1455 1453 1451 1449 1447 1444 1441 1439 1436 1434 1432 1430 1428 1426 1424 1421 1419 1416 1414 1412 1410 1408 1406 1404 1403 1401 1399 1398 1395 1393
1454 1455 1456 1457 1457 1458 1458 1457 1457 1456 1455 1453 1451 1449 1447 1445 1442 1439 1437 1434 1432 1430 1427 1426 1424 1422 1420 1417 1414 1411 1409 1406 1404 1403 1401 1399 1398 1396 1394 1392 1390 1387
1450 1451 1452 1453 1454 1454 1454 1454 1453 1452 1451 1449 1447 1445 1443 1440 1438 1435 1433 1430 1428 1425 1423 1422 1420 1418 1415 1412 1409 1406 1404 1401 1399 1398 1396 1394 1393 1391 1389 1387 1384 1382
1446 1447 1448 1449 1450 1450 1450 1450 1449 1448 1447 1445 1444 1442 1439 1436 1434 1431 1428 1426 1423 1421 1419 1417 1415 1413 1410 1407 1404 1401 1399 1396 1394 1392 1390 1388 1386 1385 1383 1381 1378 1376
1442 1443 1444 1445 1445 1446 1445 1445 1445 1444 1443 1441 1439 1437 1435 1432 1429 1426 1424 1421 1419 1417 1414 1412 1410 1408 1405 1402 1399 1396 1394 1391 1388 1386 1383 1381 1379 1376 1375 1374 1372 1369
1438 1439 1440 1440 1441 1441 1441 1441 1440 1439 1438 1436 1435 1432 1430 1427 1425 1422 1420 1417 1415 1412 1410 1407 1405 1402 1400 1397 1394 1391 1389 1386 1383 1380 1377 1374 1371 1369 1367 1367 1365 1362
1434 1435 1436 1436 1437 1437 1437 1437 1436 1435 1434 1432 1430 1427 1425 1423 1420 1418 1416 1413 1411 1408 1405 1402 1400 1397 1395 1392 1390 1387 1383 1380 1376 1373 1370 1367 1364 1361 1360 1359 1357 1354
1429 1430 1431 1432 1432 1432 1432 1432 1431 1430 1429 1427 1425 1423 1421 1419 1417 1415 1412 1410 1407 1404 1401 1398 1395 1393 1390 1387 1385 1381 1377 1374 1370 1366 1363 1359 1357 1354 1353 1352 1349 1347
1425 1426 1427 1427 1428 1428 1428 1428 1427 1426 1424 1422 1420 1418 1416 1415 1413 1411 1408 1406 1403 1400 1397 1394 1391 1388 1385 1382 1379 1375 1371 1367 1363 1359 1355 1352 1349 1347 1345 1343 1341 1339
1420 1421 1422 1422 1423 1423 1423 1423 1422 1421 1419 1417 1416 1414 1413 1411 1409 1407 1405 1402 1399 1396 1393 1390 1387 1384 1380 1376 1372 1368 1364 1360 1356 1352 1348 1345 1342 1340 1338 1336 1333 1332
1416 1417 1418 1418 1418 1418 1419 1418 1417 1416 1415 1413 1411 1410 1409 1407 1405 1403 1400 1398 1395 1392 1389 1386 1383 1379 1375 1371 1367 1363 1358 1353 1349 1345 1342 1339 1336 1334 1332 1329 1326 1325
1412 1413 1413 1414 1414 1414 1414 1414 1413 1412 1410 1409 1407 1406 1405 1403 1401 1399 1396 1394 1391 1388 1386 1382 1379 1375 1371 1367 1362 1358 1353 1348 1345 1343 1339 1336 1333 1330 1328 1326 1323 1320
1408 1409 1409 1410 1410 1410 1410 1409 1408 1407 1406 1405 1404 1402 1401 1399 1397 1395 1392 1390 1387 1385 1382 1379 1375 1371 1367 1363 1359 1354 1350 1346 1343 1340 1338 1334 1331 1327 1324 1322 1320 1318
1404 1405 1405 1405 1405 1405 1405 1405 1404 1403 1402 1401 1400 1398 1397 1395 1393 1391 1389 1386 1384 1381 1378 1375 1372 1368 1363 1359 1356 1352 1348 1344 1340 1337 1334 1331 1328 1324 1320 1317 1315 1313
1400 1400 1401 1401 1401 1401 1401 1400 1400 1399 1398 1397 1395 1394 1393 1392 1390 1388 1385 1383 1380 1377 1374 1372 1368 1365 1360 1356 1352 1348 1345 1342 1338 1334 1331 1328 1325 1321 1317 1313 1310 1307
1396 1397 1397 1397 1397 1397 1397 1396 1396 1395 1394 1392 1391 1390 1389 1388 1386 1384 1382 1380 1377 1373 1370 1368 1365 1361 1358 1353 1348 1344 1342 1340 1336 1332 1328 1325 1321 1318 1314 1310 1306 1303
1393 1393 1393 1393 1393 1393 1393 1392 1392 1391 1390 1388 1387 1386 1385 1384 1383 1381 1379 1376 1373 1370 1367 1364 1362 1358 1354 1350 1345 1340 1338 1336 1333 1329 1325 1321 1317 1313 1309 1306 1303 1299
1389 1390 1390 1389 1389 1389 1389 1389 1389 1387 1386 1384 1383 1383 1381 1380 1379 1377 1375 1373 1370 1367 1363 1361 1358 1354 1350 1346 1340 1336 1334 1332 1328 1324 1320 1315 1311 1308 1304 1300 1297 1294
1386 1386 1386 1386 1386 1386 1386 1386 1385 1383 1382 1381 1380 1380 1378 1377 1376 1374 1372 1369 1367 1364 1360 1357 1355 1350 1346 1341 1336 1333 1330 1328 1324 1320 1316 1311 1307 1303 1299 1295 1291 1288
1382 1382 1382 1382 1382 1383 1383 1382 1381 1379 1378 1377 1377 1377 1375 1374 1372 1370 1368 1366 1364 1361 1357 1353 1350 1346 1341 1337 1333 1330 1328 1325 1321 1316 1312 1307 1302 1298 1294 1289 1286 1282
1379 1379 1379 1379 1379 1380 1379 1378 1377 1376 1375 1374 1374 1373 1372 1370 1368 1367 1365 1363 1361 1358 1354 1349 1345 1342 1338 1333 1329 1327 1326 1323 1318 1312 1307 1302 1297 1292 1288 1284 1279 1275
1375 1375 1375 1376 1376 1376 1376 1375 1374 1373 1372 1372 1371 1370 1368 1367 1365 1363 1362 1360 1358 1355 1351 1346 1341 1338 1335 1330 1326 1325 1324 1321 1316 1309 1303 1297 1292 1287 1282 1278 1274 1269
1372 1372 1372 1373 1373 1373 1372 1371 1370 1369 1369 1369 1369 1367 1366 1364 1362 1360 1358 1356 1354 1351 1346 1343 1338 1334 1330 1327 1324 1322 1321 1318 1314 1308 1300 1293 1288 1283 1277 1272 1269 1264